Wetterdaten: Woche 11.09.17 - 17.09.17 (KW37)
Datum Zeit Temp. I. Temp. A. Feuchte I. Feuchte A. Luftdruck Regen Wind Richtung Sonnenschein UV Solar Taupunkt Windchill Windben
11.09.2017 12:00 21,6 C 17,5 C 50 % 65 % 1002,5 hPa 0,0 l/m 9,5 km/h (2 Bft) S 1,57 h 3,8 UV-I 632 W/m 10,9 C 16,0 C 19,5 km/h (3 Bft)
11.09.2017 13:00 21,5 C 16,6 C 50 % 68 % 1002,4 hPa 0,0 l/m 7,2 km/h (2 Bft) S 1,00 h 2,1 UV-I 263 W/m 10,6 C 15,7 C 15,0 km/h (3 Bft)
11.09.2017 14:00 21,4 C 16,3 C 50 % 70 % 1002,1 hPa 0,0 l/m 4,3 km/h (1 Bft) S-SW 0,33 h 1,1 UV-I 127 W/m 10,8 C 16,0 C 10,7 km/h (2 Bft)
11.09.2017 15:00 21,4 C 15,7 C 51 % 75 % 1002,3 hPa 0,0 l/m 3,5 km/h (1 Bft) SW 0,18 h 0,9 UV-I 87 W/m 11,2 C 15,5 C 9,1 km/h (2 Bft)
11.09.2017 16:00 21,4 C 15,9 C 52 % 74 % 1002,4 hPa 0,0 l/m 4,1 km/h (1 Bft) S 0,43 h 1,0 UV-I 183 W/m 11,2 C 15,6 C 10,1 km/h (2 Bft)
11.09.2017 17:00 21,4 C 16,1 C 52 % 72 % 1002,4 hPa 0,0 l/m 2,6 km/h (1 Bft) S-SW 0,05 h 0,6 UV-I 78 W/m 11,1 C 16,0 C 7,1 km/h (2 Bft)
11.09.2017 18:00 21,4 C 15,3 C 52 % 75 % 1002,7 hPa 0,0 l/m 3,5 km/h (1 Bft) W-SW 0,00 h 0,0 UV-I 33 W/m 10,9 C 15,0 C 8,6 km/h (2 Bft)
11.09.2017 19:00 21,5 C 14,0 C 52 % 74 % 1003,1 hPa 0,0 l/m 1,7 km/h (1 Bft) SW 0,00 h 0,0 UV-I 15 W/m 9,4 C 13,9 C 5,4 km/h (1 Bft)
11.09.2017 20:00 21,5 C 12,6 C 51 % 78 % 1004,0 hPa 0,0 l/m 1,0 km/h (0 Bft) S 0,00 h 0,0 UV-I 0 W/m 8,9 C 12,6 C 3,2 km/h (1 Bft)
11.09.2017 21:00 21,4 C 12,1 C 51 % 80 % 1004,7 hPa 0,0 l/m 3,0 km/h (1 Bft) S 0,00 h 0,0 UV-I 0 W/m 8,8 C 12,1 C 6,9 km/h (2 Bft)
11.09.2017 22:00 21,3 C 10,9 C 50 % 85 % 1005,3 hPa 0,0 l/m 0,9 km/h (0 Bft) S 0,00 h 0,0 UV-I 0 W/m 8,5 C 10,9 C 3,1 km/h (1 Bft)
11.09.2017 23:00 21,1 C 10,0 C 51 % 88 % 1005,7 hPa 0,0 l/m 0,1 km/h (0 Bft) S 0,00 h 0,0 UV-I 0 W/m 8,1 C 10,0 C 0,8 km/h (0 Bft)
12.09.2017 00:00 20,8 C 9,6 C 52 % 87 % 1005,9 hPa 0,0 l/m 1,6 km/h (1 Bft) S 0,00 h 0,0 UV-I 0 W/m 7,6 C 9,6 C 4,9 km/h (1 Bft)
12.09.2017 01:00 20,6 C 9,9 C 52 % 86 % 1006,0 hPa 0,0 l/m 2,6 km/h (1 Bft) S 0,00 h 0,0 UV-I 0 W/m 7,6 C 9,8 C 6,8 km/h (2 Bft)
12.09.2017 02:00 20,4 C 9,3 C 52 % 88 % 1006,1 hPa 0,0 l/m 0,8 km/h (0 Bft) S 0,00 h 0,0 UV-I 0 W/m 7,4 C 9,3 C 2,0 km/h (1 Bft)
12.09.2017 03:00 20,4 C 8,4 C 52 % 91 % 1006,1 hPa 0,0 l/m 0,1 km/h (0 Bft) O 0,00 h 0,0 UV-I 0 W/m 6,9 C 8,4 C 0,3 km/h (0 Bft)
12.09.2017 04:00 20,3 C 8,2 C 52 % 91 % 1006,1 hPa 0,0 l/m 0,2 km/h (0 Bft) O-SO 0,00 h 0,0 UV-I 0 W/m 6,8 C 8,2 C 0,6 km/h (0 Bft)
12.09.2017 05:00 20,3 C 7,6 C 53 % 92 % 1006,1 hPa 0,0 l/m 0,5 km/h (0 Bft) S-SO 0,00 h 0,0 UV-I 0 W/m 6,3 C 7,6 C 1,6 km/h (1 Bft)
12.09.2017 06:00 20,2 C 8,8 C 52 % 90 % 1006,4 hPa 0,0 l/m 7,2 km/h (2 Bft) S 0,00 h 0,0 UV-I 6 W/m 7,3 C 7,8 C 11,9 km/h (2 Bft)
12.09.2017 07:00 20,3 C 9,3 C 51 % 89 % 1006,3 hPa 0,0 l/m 4,6 km/h (1 Bft) S 0,00 h 0,0 UV-I 29 W/m 7,6 C 9,2 C 9,4 km/h (2 Bft)
12.09.2017 08:00 20,5 C 10,2 C 50 % 86 % 1006,7 hPa 0,0 l/m 2,2 km/h (1 Bft) S 0,33 h 0,6 UV-I 135 W/m 7,9 C 10,1 C 6,1 km/h (2 Bft)
12.09.2017 09:00 20,6 C 11,3 C 49 % 83 % 1006,9 hPa 0,0 l/m 2,3 km/h (1 Bft) SW 0,65 h 1,2 UV-I 252 W/m 8,5 C 11,3 C 6,1 km/h (2 Bft)
12.09.2017 10:00 20,8 C 12,4 C 49 % 79 % 1007,1 hPa 0,0 l/m 3,4 km/h (1 Bft) SW 0,77 h 1,4 UV-I 225 W/m 8,9 C 12,3 C 9,6 km/h (2 Bft)
12.09.2017 11:00 20,9 C 12,4 C 49 % 80 % 1007,5 hPa 0,0 l/m 4,8 km/h (1 Bft) S 0,43 h 1,1 UV-I 145 W/m 9,0 C 12,1 C 11,1 km/h (2 Bft)
12.09.2017 12:00 21,0 C 13,0 C 49 % 79 % 1008,0 hPa 0,0 l/m 3,9 km/h (1 Bft) S 0,50 h 1,3 UV-I 166 W/m 9,4 C 12,8 C 9,5 km/h (2 Bft)
12.09.2017 13:00 21,0 C 13,5 C 49 % 80 % 1008,6 hPa 1,6 l/m 3,8 km/h (1 Bft) N 0,58 h 1,6 UV-I 192 W/m 10,0 C 13,3 C 9,3 km/h (2 Bft)
12.09.2017 14:00 21,1 C 13,1 C 51 % 86 % 1008,7 hPa 0,8 l/m 4,1 km/h (1 Bft) S 0,57 h 1,4 UV-I 219 W/m 10,8 C 12,8 C 10,1 km/h (2 Bft)
12.09.2017 15:00 21,2 C 12,7 C 51 % 89 % 1009,1 hPa 2,0 l/m 2,0 km/h (1 Bft) W 0,62 h 1,4 UV-I 243 W/m 10,9 C 12,4 C 5,1 km/h (1 Bft)
12.09.2017 16:00 21,2 C 12,7 C 51 % 88 % 1009,6 hPa 2,0 l/m 3,4 km/h (1 Bft) W 0,27 h 1,3 UV-I 134 W/m 10,8 C 12,4 C 7,7 km/h (2 Bft)
12.09.2017 17:00 21,0 C 11,1 C 52 % 92 % 1010,1 hPa 1,0 l/m 0,9 km/h (0 Bft) W-SW 0,38 h 0,6 UV-I 152 W/m 10,0 C 11,1 C 2,7 km/h (1 Bft)
12.09.2017 18:00 21,0 C 11,9 C 52 % 91 % 1010,4 hPa 0,0 l/m 0,0 km/h (0 Bft) N 0,05 h 0,5 UV-I 55 W/m 10,5 C 11,9 C 0,0 km/h (0 Bft)
12.09.2017 19:00 21,0 C 11,1 C 52 % 92 % 1010,7 hPa 0,0 l/m 0,0 km/h (0 Bft) N 0,00 h 0,0 UV-I 9 W/m 9,9 C 11,1 C 0,0 km/h (0 Bft)
12.09.2017 20:00 21,0 C 10,4 C 52 % 94 % 1011,6 hPa 0,0 l/m 0,0 km/h (0 Bft) N 0,00 h 0,0 UV-I 0 W/m 9,5 C 10,4 C 0,0 km/h (0 Bft)
12.09.2017 21:00 21,0 C 10,2 C 52 % 95 % 1012,4 hPa 0,0 l/m 0,3 km/h (0 Bft) S-SW 0,00 h 0,0 UV-I 0 W/m 9,4 C 10,2 C 1,4 km/h (1 Bft)
12.09.2017 22:00 21,0 C 10,0 C 52 % 94 % 1013,0 hPa 0,0 l/m 1,9 km/h (1 Bft) S-SW 0,00 h 0,0 UV-I 0 W/m 9,0 C 10,0 C 5,6 km/h (1 Bft)
12.09.2017 23:00 20,8 C 10,0 C 52 % 94 % 1013,6 hPa 0,0 l/m 4,4 km/h (1 Bft) SW 0,00 h 0,0 UV-I 0 W/m 9,0 C 9,9 C 10,1 km/h (2 Bft)
13.09.2017 00:00 20,5 C 10,1 C 53 % 94 % 1013,7 hPa 0,0 l/m 1,7 km/h (1 Bft) S-SW 0,00 h 0,0 UV-I 0 W/m 9,2 C 10,1 C 5,2 km/h (1 Bft)
13.09.2017 01:00 20,4 C 9,7 C 53 % 94 % 1013,7 hPa 0,0 l/m 0,5 km/h (0 Bft) S 0,00 h 0,0 UV-I 0 W/m 8,8 C 9,7 C 2,3 km/h (1 Bft)
13.09.2017 02:00 20,2 C 9,6 C 53 % 95 % 1013,4 hPa 0,0 l/m 4,0 km/h (1 Bft) S 0,00 h 0,0 UV-I 0 W/m 8,8 C 9,5 C 9,0 km/h (2 Bft)
13.09.2017 03:00 20,1 C 10,0 C 53 % 94 % 1013,2 hPa 0,0 l/m 2,8 km/h (1 Bft) S 0,00 h 0,0 UV-I 0 W/m 9,0 C 9,9 C 7,3 km/h (2 Bft)
13.09.2017 04:00 20,0 C 9,7 C 53 % 93 % 1012,6 hPa 0,0 l/m 3,9 km/h (1 Bft) S 0,00 h 0,0 UV-I 0 W/m 8,6 C 9,5 C 8,4 km/h (2 Bft)
13.09.2017 05:00 19,9 C 9,1 C 53 % 93 % 1011,5 hPa 0,0 l/m 7,7 km/h (2 Bft) S-SO 0,00 h 0,0 UV-I 0 W/m 8,1 C 7,9 C 12,7 km/h (3 Bft)
13.09.2017 06:00 19,7 C 8,8 C 52 % 93 % 1010,9 hPa 0,0 l/m 5,9 km/h (2 Bft) S-SO 0,00 h 0,0 UV-I 9 W/m 7,7 C 8,3 C 10,8 km/h (2 Bft)
13.09.2017 07:00 19,7 C 8,9 C 52 % 92 % 1010,6 hPa 0,0 l/m 5,2 km/h (1 Bft) S 0,00 h 0,0 UV-I 19 W/m 7,7 C 8,5 C 10,1 km/h (2 Bft)
13.09.2017 13:00 19,2 C 13,5 C 55 % 83 % 1006,5 hPa 0,0 l/m 10,6 km/h (2 Bft) S 0,00 h 0,8 UV-I 87 W/m 10,7 C 11,2 C 17,4 km/h (3 Bft)
13.09.2017 14:00 19,3 C 14,1 C 55 % 82 % 1006,3 hPa 0,0 l/m 10,8 km/h (2 Bft) S 0,00 h 0,7 UV-I 68 W/m 11,2 C 11,8 C 17,1 km/h (3 Bft)
13.09.2017 15:00 19,4 C 15,0 C 56 % 80 % 1006,2 hPa 0,0 l/m 11,2 km/h (2 Bft) S 0,00 h 0,7 UV-I 57 W/m 11,6 C 12,7 C 18,8 km/h (3 Bft)
13.09.2017 16:00 19,5 C 16,2 C 57 % 74 % 1006,5 hPa 0,0 l/m 8,2 km/h (2 Bft) SW 0,52 h 0,9 UV-I 120 W/m 11,5 C 15,0 C 15,7 km/h (3 Bft)
13.09.2017 17:00 19,6 C 16,7 C 55 % 70 % 1006,4 hPa 0,0 l/m 10,2 km/h (2 Bft) SW 0,07 h 0,6 UV-I 78 W/m 11,1 C 14,9 C 19,3 km/h (3 Bft)
13.09.2017 18:00 19,7 C 16,4 C 55 % 74 % 1006,1 hPa 0,0 l/m 7,9 km/h (2 Bft) SW 0,00 h 0,0 UV-I 15 W/m 11,8 C 15,0 C 15,6 km/h (3 Bft)
13.09.2017 19:00 20,3 C 14,5 C 54 % 88 % 1006,4 hPa 1,2 l/m 12,1 km/h (2 Bft) W-SW 0,00 h 0,0 UV-I 9 W/m 12,4 C 11,7 C 21,0 km/h (4 Bft)
13.09.2017 20:00 20,6 C 13,3 C 53 % 93 % 1006,6 hPa 1,4 l/m 3,8 km/h (1 Bft) SW 0,00 h 0,0 UV-I 0 W/m 12,3 C 13,1 C 9,6 km/h (2 Bft)
13.09.2017 21:00 20,5 C 12,8 C 53 % 94 % 1006,5 hPa 2,4 l/m 6,1 km/h (2 Bft) SW 0,00 h 0,0 UV-I 0 W/m 11,9 C 12,1 C 13,8 km/h (3 Bft)
13.09.2017 22:00 20,3 C 11,6 C 54 % 93 % 1006,7 hPa 1,6 l/m 4,1 km/h (1 Bft) SW 0,00 h 0,0 UV-I 0 W/m 10,5 C 11,1 C 9,3 km/h (2 Bft)
13.09.2017 23:00 20,2 C 11,2 C 54 % 94 % 1006,1 hPa 2,4 l/m 0,2 km/h (0 Bft) S 0,00 h 0,0 UV-I 0 W/m 10,2 C 11,2 C 1,3 km/h (1 Bft)
14.09.2017 00:00 20,1 C 11,6 C 54 % 95 % 1006,0 hPa 0,8 l/m 3,7 km/h (1 Bft) W 0,00 h 0,0 UV-I 0 W/m 10,8 C 11,0 C 8,3 km/h (2 Bft)
14.09.2017 01:00 20,0 C 11,4 C 55 % 96 % 1005,0 hPa 0,6 l/m 0,1 km/h (0 Bft) W-NW 0,00 h 0,0 UV-I 0 W/m 10,7 C 11,4 C 0,6 km/h (0 Bft)
14.09.2017 02:00 19,9 C 11,4 C 55 % 96 % 1004,3 hPa 0,4 l/m 0,0 km/h (0 Bft) N 0,00 h 0,0 UV-I 0 W/m 10,8 C 11,4 C 0,0 km/h (0 Bft)
14.09.2017 03:00 19,9 C 11,6 C 55 % 96 % 1003,8 hPa 0,6 l/m 0,4 km/h (0 Bft) W 0,00 h 0,0 UV-I 0 W/m 11,1 C 11,6 C 2,2 km/h (1 Bft)
14.09.2017 04:00 20,0 C 11,7 C 55 % 97 % 1003,7 hPa 0,4 l/m 0,8 km/h (0 Bft) SW 0,00 h 0,0 UV-I 0 W/m 11,2 C 11,7 C 3,8 km/h (1 Bft)
14.09.2017 05:00 20,0 C 11,6 C 55 % 97 % 1003,7 hPa 0,4 l/m 2,1 km/h (1 Bft) W-SW 0,00 h 0,0 UV-I 0 W/m 11,1 C 11,6 C 6,4 km/h (2 Bft)
14.09.2017 06:00 20,2 C 11,1 C 55 % 96 % 1004,3 hPa 0,6 l/m 3,0 km/h (1 Bft) W-SW 0,00 h 0,0 UV-I 0 W/m 10,5 C 11,0 C 7,8 km/h (2 Bft)
14.09.2017 07:00 20,5 C 10,5 C 54 % 96 % 1004,9 hPa 0,4 l/m 1,5 km/h (1 Bft) W 0,00 h 0,0 UV-I 15 W/m 9,9 C 10,5 C 4,9 km/h (1 Bft)
14.09.2017 08:00 20,6 C 10,3 C 54 % 96 % 1005,1 hPa 0,0 l/m 1,0 km/h (0 Bft) SW 0,00 h 0,0 UV-I 34 W/m 9,6 C 10,3 C 3,6 km/h (1 Bft)
14.09.2017 09:00 20,7 C 10,4 C 54 % 95 % 1005,3 hPa 0,2 l/m 0,9 km/h (0 Bft) S 0,00 h 0,6 UV-I 77 W/m 9,7 C 10,4 C 3,2 km/h (1 Bft)
14.09.2017 10:00 20,7 C 10,3 C 54 % 96 % 1005,5 hPa 0,2 l/m 5,0 km/h (1 Bft) S 0,00 h 0,8 UV-I 95 W/m 9,7 C 10,0 C 11,3 km/h (2 Bft)
14.09.2017 11:00 20,7 C 10,2 C 54 % 95 % 1006,1 hPa 0,4 l/m 6,0 km/h (2 Bft) S 0,08 h 0,9 UV-I 103 W/m 9,5 C 9,6 C 12,1 km/h (2 Bft)
14.09.2017 12:00 20,7 C 10,1 C 54 % 94 % 1006,2 hPa 0,4 l/m 6,8 km/h (2 Bft) S 0,05 h 0,9 UV-I 98 W/m 9,2 C 9,2 C 13,4 km/h (3 Bft)
14.09.2017 13:00 20,8 C 10,1 C 54 % 94 % 1006,4 hPa 0,4 l/m 7,0 km/h (2 Bft) S 0,30 h 1,2 UV-I 127 W/m 9,2 C 9,1 C 14,5 km/h (3 Bft)
14.09.2017 14:00 20,8 C 9,7 C 54 % 94 % 1006,6 hPa 1,0 l/m 6,9 km/h (2 Bft) SW 0,00 h 0,6 UV-I 45 W/m 8,8 C 8,6 C 16,1 km/h (3 Bft)
14.09.2017 15:00 20,8 C 9,1 C 54 % 93 % 1007,5 hPa 0,2 l/m 11,8 km/h (2 Bft) SW 0,00 h 0,6 UV-I 70 W/m 7,9 C 5,7 C 21,5 km/h (4 Bft)
14.09.2017 16:00 20,8 C 9,1 C 54 % 91 % 1008,0 hPa 0,0 l/m 9,5 km/h (2 Bft) SW 0,00 h 0,5 UV-I 49 W/m 7,8 C 6,8 C 18,8 km/h (3 Bft)
14.09.2017 17:00 20,6 C 9,3 C 53 % 91 % 1008,2 hPa 0,0 l/m 6,3 km/h (2 Bft) S-SW 0,00 h 0,6 UV-I 49 W/m 7,9 C 8,5 C 13,5 km/h (3 Bft)
14.09.2017 18:00 20,1 C 9,2 C 54 % 92 % 1008,5 hPa 0,2 l/m 5,5 km/h (1 Bft) SW 0,00 h 0,0 UV-I 19 W/m 8,0 C 8,8 C 11,6 km/h (2 Bft)
14.09.2017 19:00 20,0 C 9,1 C 55 % 92 % 1009,2 hPa 0,0 l/m 5,5 km/h (1 Bft) SW 0,00 h 0,0 UV-I 6 W/m 7,9 C 8,6 C 11,7 km/h (2 Bft)
14.09.2017 20:00 19,9 C 9,1 C 55 % 91 % 1009,8 hPa 0,0 l/m 8,8 km/h (2 Bft) S-SW 0,00 h 0,0 UV-I 0 W/m 7,6 C 7,2 C 17,6 km/h (3 Bft)
14.09.2017 21:00 20,2 C 9,0 C 55 % 90 % 1010,0 hPa 0,0 l/m 10,7 km/h (2 Bft) SW 0,00 h 0,0 UV-I 0 W/m 7,4 C 6,2 C 19,9 km/h (4 Bft)
14.09.2017 22:00 20,3 C 9,1 C 54 % 88 % 1009,9 hPa 0,0 l/m 10,3 km/h (2 Bft) S-SW 0,00 h 0,0 UV-I 0 W/m 7,2 C 6,5 C 19,8 km/h (4 Bft)
14.09.2017 23:00 20,2 C 9,1 C 54 % 88 % 1010,6 hPa 0,0 l/m 12,5 km/h (3 Bft) SW 0,00 h 0,0 UV-I 0 W/m 7,2 C 5,5 C 21,7 km/h (4 Bft)
15.09.2017 00:00 20,1 C 8,6 C 54 % 92 % 1011,7 hPa 1,4 l/m 10,7 km/h (2 Bft) W-SW 0,00 h 0,0 UV-I 0 W/m 7,4 C 5,8 C 19,8 km/h (4 Bft)
15.09.2017 01:00 20,0 C 8,4 C 54 % 94 % 1011,7 hPa 0,4 l/m 16,7 km/h (3 Bft) W-SW 0,00 h 0,0 UV-I 0 W/m 7,5 C 2,6 C 26,8 km/h (4 Bft)
15.09.2017 02:00 19,9 C 8,6 C 55 % 95 % 1012,2 hPa 0,0 l/m 12,4 km/h (3 Bft) W-SW 0,00 h 0,0 UV-I 0 W/m 7,8 C 4,9 C 21,4 km/h (4 Bft)
15.09.2017 03:00 19,9 C 8,7 C 55 % 95 % 1012,8 hPa 0,0 l/m 8,6 km/h (2 Bft) W-SW 0,00 h 0,0 UV-I 0 W/m 7,9 C 7,0 C 16,9 km/h (3 Bft)
15.09.2017 04:00 19,9 C 8,7 C 55 % 96 % 1013,2 hPa 0,0 l/m 7,4 km/h (2 Bft) W-SW 0,00 h 0,0 UV-I 0 W/m 8,1 C 7,5 C 14,6 km/h (3 Bft)
15.09.2017 05:00 19,9 C 8,8 C 55 % 96 % 1014,0 hPa 0,0 l/m 7,0 km/h (2 Bft) W-SW 0,00 h 0,0 UV-I 0 W/m 8,2 C 7,9 C 12,9 km/h (3 Bft)
15.09.2017 06:00 20,0 C 8,9 C 55 % 95 % 1014,2 hPa 0,0 l/m 3,6 km/h (1 Bft) W-SW 0,00 h 0,0 UV-I 0 W/m 8,1 C 8,8 C 7,9 km/h (2 Bft)
15.09.2017 07:00 20,3 C 8,9 C 54 % 95 % 1014,7 hPa 0,0 l/m 1,2 km/h (1 Bft) SW 0,00 h 0,0 UV-I 20 W/m 8,2 C 8,9 C 3,9 km/h (1 Bft)
15.09.2017 08:00 20,5 C 9,3 C 54 % 95 % 1014,9 hPa 0,0 l/m 1,0 km/h (0 Bft) SW 0,00 h 0,0 UV-I 50 W/m 8,5 C 9,3 C 2,9 km/h (1 Bft)
15.09.2017 09:00 20,6 C 9,6 C 54 % 94 % 1015,1 hPa 0,0 l/m 0,5 km/h (0 Bft) S-SW 0,00 h 0,6 UV-I 70 W/m 8,6 C 9,6 C 1,7 km/h (1 Bft)
15.09.2017 10:00 20,7 C 10,0 C 53 % 92 % 1015,3 hPa 0,0 l/m 1,8 km/h (1 Bft) S-SW 0,10 h 0,8 UV-I 113 W/m 8,7 C 9,9 C 5,0 km/h (1 Bft)
15.09.2017 11:00 20,9 C 10,4 C 53 % 90 % 1015,3 hPa 0,0 l/m 2,4 km/h (1 Bft) S-SW 0,70 h 1,4 UV-I 187 W/m 8,9 C 10,4 C 5,1 km/h (1 Bft)
15.09.2017 12:00 20,8 C 12,1 C 53 % 83 % 1014,9 hPa 0,0 l/m 0,7 km/h (0 Bft) S 1,00 h 3,0 UV-I 376 W/m 9,3 C 12,1 C 2,8 km/h (1 Bft)
15.09.2017 13:00 20,9 C 13,8 C 53 % 73 % 1014,4 hPa 0,0 l/m 2,4 km/h (1 Bft) S 1,00 h 3,9 UV-I 679 W/m 9,1 C 13,8 C 6,1 km/h (2 Bft)
15.09.2017 14:00 21,0 C 14,1 C 53 % 70 % 1014,1 hPa 0,0 l/m 1,3 km/h (1 Bft) S-SO 1,00 h 3,0 UV-I 572 W/m 8,6 C 14,1 C 4,0 km/h (1 Bft)
15.09.2017 15:00 21,1 C 14,0 C 53 % 68 % 1013,9 hPa 0,0 l/m 1,3 km/h (1 Bft) S 0,82 h 1,8 UV-I 347 W/m 8,3 C 14,0 C 4,0 km/h (1 Bft)
15.09.2017 16:00 21,1 C 14,0 C 52 % 70 % 1013,0 hPa 0,0 l/m 2,0 km/h (1 Bft) S-SO 0,72 h 1,3 UV-I 321 W/m 8,5 C 13,9 C 4,9 km/h (1 Bft)
15.09.2017 17:00 21,1 C 13,8 C 51 % 70 % 1012,6 hPa 0,0 l/m 2,2 km/h (1 Bft) S 0,63 h 0,7 UV-I 198 W/m 8,3 C 13,8 C 5,9 km/h (2 Bft)
15.09.2017 18:00 21,2 C 12,9 C 52 % 74 % 1012,5 hPa 0,0 l/m 0,5 km/h (0 Bft) S 0,00 h 0,5 UV-I 50 W/m 8,3 C 12,9 C 1,1 km/h (1 Bft)
15.09.2017 19:00 21,1 C 11,3 C 52 % 81 % 1012,5 hPa 0,0 l/m 0,0 km/h (0 Bft) N 0,00 h 0,0 UV-I 8 W/m 8,2 C 11,3 C 0,0 km/h (0 Bft)
15.09.2017 20:00 21,0 C 9,4 C 52 % 88 % 1013,0 hPa 0,0 l/m 0,0 km/h (0 Bft) N 0,00 h 0,0 UV-I 0 W/m 7,6 C 9,4 C 0,0 km/h (0 Bft)
15.09.2017 21:00 20,9 C 8,4 C 52 % 90 % 1013,1 hPa 0,0 l/m 0,0 km/h (0 Bft) N 0,00 h 0,0 UV-I 0 W/m 7,0 C 8,4 C 0,0 km/h (0 Bft)
15.09.2017 22:00 20,8 C 8,1 C 53 % 92 % 1013,0 hPa 0,0 l/m 0,0 km/h (0 Bft) N 0,00 h 0,0 UV-I 0 W/m 6,8 C 8,1 C 0,0 km/h (0 Bft)
15.09.2017 23:00 20,6 C 8,1 C 53 % 93 % 1012,8 hPa 0,0 l/m 0,0 km/h (0 Bft) N 0,00 h 0,0 UV-I 0 W/m 7,0 C 8,1 C 0,0 km/h (0 Bft)
16.09.2017 00:00 20,4 C 7,6 C 54 % 93 % 1012,8 hPa 0,0 l/m 0,0 km/h (0 Bft) N 0,00 h 0,0 UV-I 0 W/m 6,5 C 7,6 C 0,0 km/h (0 Bft)
16.09.2017 01:00 20,3 C 7,1 C 54 % 93 % 1012,6 hPa 0,0 l/m 0,0 km/h (0 Bft) N 0,00 h 0,0 UV-I 0 W/m 6,1 C 7,1 C 0,0 km/h (0 Bft)
16.09.2017 02:00 20,2 C 6,6 C 54 % 94 % 1012,5 hPa 0,0 l/m 0,0 km/h (0 Bft) N 0,00 h 0,0 UV-I 0 W/m 5,6 C 6,6 C 0,0 km/h (0 Bft)
16.09.2017 03:00 20,1 C 6,2 C 54 % 94 % 1012,1 hPa 0,0 l/m 0,0 km/h (0 Bft) N 0,00 h 0,0 UV-I 0 W/m 5,4 C 6,2 C 0,0 km/h (0 Bft)
16.09.2017 04:00 20,0 C 6,1 C 54 % 94 % 1011,9 hPa 0,0 l/m 0,0 km/h (0 Bft) N 0,00 h 0,0 UV-I 0 W/m 5,2 C 6,1 C 0,0 km/h (0 Bft)
16.09.2017 05:00 20,0 C 6,1 C 54 % 95 % 1011,4 hPa 0,0 l/m 0,0 km/h (0 Bft) N 0,00 h 0,0 UV-I 0 W/m 5,3 C 6,1 C 0,0 km/h (0 Bft)
16.09.2017 06:00 20,2 C 6,1 C 54 % 95 % 1011,3 hPa 0,0 l/m 0,0 km/h (0 Bft) N 0,00 h 0,0 UV-I 0 W/m 5,4 C 6,1 C 0,0 km/h (0 Bft)
16.09.2017 07:00 20,4 C 6,3 C 54 % 95 % 1011,4 hPa 0,0 l/m 0,0 km/h (0 Bft) N 0,00 h 0,0 UV-I 9 W/m 5,6 C 6,3 C 0,0 km/h (0 Bft)
16.09.2017 08:00 20,6 C 6,9 C 53 % 96 % 1011,8 hPa 0,0 l/m 0,0 km/h (0 Bft) N 0,00 h 0,0 UV-I 25 W/m 6,3 C 6,9 C 0,0 km/h (0 Bft)
16.09.2017 09:00 20,7 C 7,6 C 53 % 96 % 1012,4 hPa 0,0 l/m 0,0 km/h (0 Bft) N 0,00 h 0,6 UV-I 63 W/m 7,0 C 7,6 C 0,0 km/h (0 Bft)
16.09.2017 10:00 20,7 C 9,0 C 53 % 96 % 1013,0 hPa 0,0 l/m 0,0 km/h (0 Bft) N 0,10 h 0,9 UV-I 126 W/m 8,4 C 9,0 C 0,0 km/h (0 Bft)
16.09.2017 11:00 20,8 C 10,4 C 53 % 93 % 1013,0 hPa 0,2 l/m 0,1 km/h (0 Bft) W-NW 0,97 h 1,7 UV-I 260 W/m 9,4 C 10,4 C 0,3 km/h (0 Bft)
16.09.2017 12:00 20,9 C 11,4 C 53 % 89 % 1012,8 hPa 0,0 l/m 0,8 km/h (0 Bft) NW 1,00 h 1,6 UV-I 231 W/m 9,7 C 11,4 C 1,9 km/h (1 Bft)
16.09.2017 13:00 21,1 C 11,4 C 53 % 89 % 1012,8 hPa 0,0 l/m 0,3 km/h (0 Bft) W-NW 0,77 h 1,3 UV-I 169 W/m 9,5 C 11,4 C 1,5 km/h (1 Bft)
16.09.2017 14:00 21,1 C 11,7 C 52 % 86 % 1012,8 hPa 0,0 l/m 0,1 km/h (0 Bft) W-SW 0,77 h 1,4 UV-I 194 W/m 9,5 C 11,7 C 0,8 km/h (0 Bft)
16.09.2017 15:00 21,2 C 11,8 C 52 % 87 % 1012,6 hPa 0,0 l/m 0,0 km/h (0 Bft) W-NW 0,33 h 1,0 UV-I 163 W/m 9,7 C 11,8 C 0,2 km/h (0 Bft)
16.09.2017 16:00 21,2 C 11,8 C 52 % 83 % 1012,5 hPa 0,0 l/m 0,0 km/h (0 Bft) N 0,00 h 0,6 UV-I 95 W/m 9,0 C 11,8 C 0,1 km/h (0 Bft)
16.09.2017 17:00 21,2 C 12,0 C 51 % 81 % 1012,7 hPa 0,0 l/m 0,2 km/h (0 Bft) S 0,25 h 0,6 UV-I 134 W/m 8,9 C 12,0 C 0,4 km/h (0 Bft)
16.09.2017 18:00 21,1 C 11,7 C 51 % 82 % 1013,0 hPa 0,0 l/m 0,0 km/h (0 Bft) N 0,00 h 0,0 UV-I 61 W/m 8,7 C 11,7 C 0,1 km/h (0 Bft)
16.09.2017 19:00 21,1 C 10,5 C 51 % 87 % 1013,2 hPa 0,0 l/m 0,0 km/h (0 Bft) N 0,00 h 0,0 UV-I 9 W/m 8,4 C 10,5 C 0,0 km/h (0 Bft)
16.09.2017 20:00 21,1 C 9,6 C 52 % 91 % 1013,8 hPa 0,0 l/m 0,0 km/h (0 Bft) N 0,00 h 0,0 UV-I 0 W/m 8,2 C 9,6 C 0,0 km/h (0 Bft)
16.09.2017 21:00 21,0 C 9,1 C 52 % 91 % 1014,0 hPa 0,0 l/m 0,0 km/h (0 Bft) N 0,00 h 0,0 UV-I 0 W/m 7,8 C 9,1 C 0,0 km/h (0 Bft)
16.09.2017 22:00 20,9 C 7,9 C 52 % 91 % 1014,3 hPa 0,0 l/m 0,0 km/h (0 Bft) N 0,00 h 0,0 UV-I 0 W/m 6,5 C 7,9 C 0,0 km/h (0 Bft)
16.09.2017 23:00 20,6 C 6,6 C 53 % 92 % 1014,5 hPa 0,0 l/m 0,0 km/h (0 Bft) N 0,00 h 0,0 UV-I 0 W/m 5,4 C 6,6 C 0,0 km/h (0 Bft)
17.09.2017 00:00 20,3 C 5,5 C 53 % 93 % 1014,5 hPa 0,0 l/m 0,0 km/h (0 Bft) N 0,00 h 0,0 UV-I 0 W/m 4,5 C 5,5 C 0,0 km/h (0 Bft)
17.09.2017 01:00 20,2 C 4,7 C 53 % 93 % 1014,4 hPa 0,0 l/m 0,0 km/h (0 Bft) N 0,00 h 0,0 UV-I 0 W/m 3,6 C 4,7 C 0,0 km/h (0 Bft)
17.09.2017 02:00 20,1 C 3,9 C 54 % 93 % 1014,1 hPa 0,0 l/m 0,0 km/h (0 Bft) N 0,00 h 0,0 UV-I 0 W/m 2,9 C 3,9 C 0,0 km/h (0 Bft)
17.09.2017 03:00 19,9 C 3,5 C 54 % 94 % 1014,2 hPa 0,0 l/m 0,0 km/h (0 Bft) N 0,00 h 0,0 UV-I 0 W/m 2,6 C 3,5 C 0,0 km/h (0 Bft)
17.09.2017 04:00 19,9 C 3,0 C 54 % 94 % 1014,5 hPa 0,0 l/m 0,0 km/h (0 Bft) N 0,00 h 0,0 UV-I 0 W/m 2,1 C 3,0 C 0,0 km/h (0 Bft)
17.09.2017 05:00 19,9 C 3,1 C 54 % 95 % 1014,3 hPa 0,0 l/m 0,0 km/h (0 Bft) N 0,00 h 0,0 UV-I 0 W/m 2,4 C 3,1 C 0,0 km/h (0 Bft)
17.09.2017 06:00 20,0 C 3,4 C 54 % 96 % 1014,3 hPa 0,0 l/m 0,0 km/h (0 Bft) N 0,00 h 0,0 UV-I 5 W/m 2,8 C 3,4 C 0,0 km/h (0 Bft)
17.09.2017 07:00 20,3 C 3,5 C 53 % 96 % 1014,6 hPa 0,0 l/m 0,0 km/h (0 Bft) N 0,00 h 0,0 UV-I 25 W/m 2,9 C 3,5 C 0,0 km/h (0 Bft)
17.09.2017 08:00 20,4 C 4,8 C 53 % 97 % 1014,8 hPa 0,0 l/m 0,0 km/h (0 Bft) N 0,12 h 0,6 UV-I 108 W/m 4,2 C 4,8 C 0,0 km/h (0 Bft)
17.09.2017 09:00 20,6 C 8,0 C 52 % 95 % 1014,9 hPa 0,0 l/m 0,1 km/h (0 Bft) W-SW 1,00 h 1,2 UV-I 384 W/m 7,3 C 8,0 C 0,4 km/h (0 Bft)
17.09.2017 10:00 20,7 C 11,1 C 52 % 87 % 1014,8 hPa 0,0 l/m 0,7 km/h (0 Bft) W-SW 1,00 h 2,1 UV-I 517 W/m 9,0 C 11,1 C 2,2 km/h (1 Bft)
17.09.2017 11:00 20,9 C 12,9 C 52 % 80 % 1014,3 hPa 0,0 l/m 1,0 km/h (0 Bft) W 1,00 h 2,6 UV-I 471 W/m 9,6 C 12,9 C 2,7 km/h (1 Bft)
17.09.2017 12:00 21,1 C 14,5 C 52 % 70 % 1013,5 hPa 0,0 l/m 1,2 km/h (1 Bft) W-SW 1,00 h 3,0 UV-I 536 W/m 9,0 C 14,5 C 2,6 km/h (1 Bft)
17.09.2017 13:00 21,3 C 13,5 C 51 % 69 % 1013,0 hPa 0,0 l/m 1,1 km/h (1 Bft) SW 1,00 h 1,7 UV-I 207 W/m 7,8 C 13,5 C 3,0 km/h (1 Bft)
17.09.2017 14:00 21,3 C 13,3 C 51 % 70 % 1013,0 hPa 0,0 l/m 0,3 km/h (0 Bft) W-SW 0,27 h 1,0 UV-I 137 W/m 8,0 C 13,3 C 1,7 km/h (1 Bft)
17.09.2017 15:00 21,3 C 13,4 C 51 % 73 % 1013,0 hPa 0,0 l/m 0,1 km/h (0 Bft) W-SW 0,62 h 1,2 UV-I 195 W/m 8,7 C 13,4 C 0,2 km/h (0 Bft)
17.09.2017 16:00 21,3 C 13,5 C 51 % 73 % 1012,6 hPa 0,0 l/m 0,0 km/h (0 Bft) N 0,28 h 1,0 UV-I 158 W/m 8,8 C 13,5 C 0,0 km/h (0 Bft)
17.09.2017 17:00 21,2 C 12,9 C 50 % 76 % 1012,6 hPa 0,0 l/m 0,0 km/h (0 Bft) SW 0,00 h 0,6 UV-I 59 W/m 8,8 C 12,9 C 0,2 km/h (0 Bft)
17.09.2017 18:00 21,1 C 12,1 C 49 % 79 % 1013,0 hPa 0,0 l/m 1,5 km/h (1 Bft) SW 0,00 h 0,0 UV-I 20 W/m 8,6 C 12,0 C 4,4 km/h (1 Bft)
17.09.2017 19:00 21,1 C 10,5 C 50 % 86 % 1013,2 hPa 0,0 l/m 0,3 km/h (0 Bft) S-SO 0,00 h 0,0 UV-I 19 W/m 8,2 C 10,5 C 0,9 km/h (0 Bft)
17.09.2017 20:00 21,1 C 9,0 C 50 % 91 % 1013,8 hPa 0,0 l/m 0,0 km/h (0 Bft) N 0,00 h 0,0 UV-I 0 W/m 7,5 C 9,0 C 0,0 km/h (0 Bft)
17.09.2017 21:00 20,9 C 8,2 C 51 % 92 % 1014,0 hPa 0,0 l/m 0,0 km/h (0 Bft) N 0,00 h 0,0 UV-I 0 W/m 6,9 C 8,2 C 0,0 km/h (0 Bft)
17.09.2017 22:00 20,6 C 7,2 C 51 % 92 % 1014,4 hPa 0,0 l/m 0,0 km/h (0 Bft) N 0,00 h 0,0 UV-I 0 W/m 6,0 C 7,2 C 0,0 km/h (0 Bft)
17.09.2017 23:00 20,3 C 5,9 C 52 % 92 % 1014,6 hPa 0,0 l/m 0,0 km/h (0 Bft) N 0,00 h 0,0 UV-I 0 W/m 4,7 C 5,9 C 0,0 km/h (0 Bft)
Min-Datum _ 13.09.17 17.09.17 11.09.17 15.09.17 11.09.17 - 11.09.17 - - - - 17.09.17 14.09.17 11.09.17
_ Min-Zeit 13:28 07:54 13:10 14:54 14:07 - 12:42 - - - - 04:18 23:59 13:37
Minimum _ 19,2 C 0,0 C 49 % 62 % 1002,0 hPa - 0,0 km/h (0 Bft) - - - - 2,0 C -0,7 C 0,0 km/h (0 Bft)
Max-Datum _ 11.09.17 11.09.17 13.09.17 17.09.17 15.09.17 13.09.17 14.09.17 - 11.09.17 11.09.17 15.09.17 13.09.17 11.09.17 14.09.17
_ Max-Zeit 12:37 12:33 15:42 09:19 10:45 21:02 23:59 - 12:25 12:43 13:26 19:13 12:30 23:59
Maximum _ 21,6 C 17,8 C 57 % 98 % 1015,5 hPa 2,4 l/m 29,0 km/h
SW (5 Bft)
- 1,00 h 4,9 UV-I 944 W/m 12,6 C 17,7 C 38,6 km/h
SW (5 Bft)
Durchschnitt _ 20,6 C 10,4 C 53 % 88 % 1010,2 hPa #25,6 l/m 2,9 km/h (1 Bft) S #26:10 h 1,2 UV-I 143 W/m 8,4 C 10,0 C 6,0 km/h (2 Bft)